Observer details:
114 Engelhardt Observatory, Zelenchukskaya Station.  Observers T. Kryachko,
    B. Satovski.  Measurer T. Kryachko.  0.3-m f/7.7 reflector + CCD.
118 Modra.  Observers S. Gajdos, J. Vilagi.  Measurer S. Gajdos.  0.6-m f/5.5
    reflector + CCD.
703 Catalina Sky Survey.  Observer A. Boattini.  Measurers J. D. Ahern,
    E. C. Beshore, A. Boattini, A. R. Gibbs, A. D. Grauer, R. E. Hill,
    R. A. Kowalski, S. M. Larson.  0.68-m Schmidt + CCD.
844 Los Molinos.  Observers S. Bruzzone, R. Salvo, G. Tancredi, S. Roland,
    M. Martinez.  Measurer S. Bruzzone.  0.35-m reflector + CCD.
850 Cordell-Lorenz Observatory, Sewanee.  Observer D. T. Durig.  0.30-m f/2.8
    Schmidt-Cassegrain + CCD.
854 Sabino Canyon Observatory, Tucson.  Observer J. E. McGaha.  0.36-m f/10.0
    Schmidt-Cassegrain + CCD.
926 Tenagra II Observatory.  Observers P. R. Holvorcem, M. Schwartz.  Measurer
    P. R. Holvorcem.  0.81-m f/7 Ritchey-Chretien + CCD.
A79 Zvezdno Obshtestvo Observatory, Plana.  Observer F. Fratev.  0.35-m f/3.4
    reflector + CCD.
E94 Possum Observatory, Gisborne.  Observer J. Drummond.  0.35-m f/10
    Schmidt-Cassegrain + CCD.
G96 Mt. Lemmon Survey.  Observer R. E. Hill.  Measurers J. D. Ahern,
    E. C. Beshore, A. Boattini, A. R. Gibbs, A. D. Grauer, R. E. Hill,
    R. A. Kowalski, S. M. Larson.  1.5-m reflector + CCD.
H06 RAS Observatory, Mayhill.  Observers E. Guido, G. Sostero, E. Bryssinck,
    H. Sato, T. Yusa.  0.25-m f/3.4 reflector + CCD, 0.3-m f/11.9 Cassegrain
    + CCD.
H10 Tzec Maun Observatory, Mayhill.  Observers P. Concari, S. Foglia, G. Galli,
    M. Tombelli.  0.18-m f/2.8 Newtonian reflector + CCD, 0.18-m f/7.32
    refractor + CCD.
H11 LightBuckets Observatory, Rodeo.  Observer T. Vorobjov.  0.61-m f/8
    Ritchey-Chretien + CCD.
J04 ESA Optical Ground Station, Tenerife.  Observer L. D. Palmero.
    Measurers M. Busch, D. Koschny.  1.0-m f/4.4 reflector + CCD.
J95 Great Shefford.  Observer P. Birtwhistle.  0.40-m f/6.0 Schmidt-Cassegrain
    + CCD.

Orbital elements:
    C/2010 J1 (Boattini)
T 2010 Jan. 31.598 TT                                   MPC
q   1.60295              (2000.0)            P               Q
                   Peri.  327.002       +0.123216       -0.700108
                   Node   253.863       -0.675147       -0.578568
e   1.0            Incl.  132.931       -0.727320       +0.418459
From 89 observations 2010 May 6-7.

Ephemeris:
    C/2010 J1 (Boattini)
Date    TT    R. A. (2000) Decl.     Delta      r     Elong.  Phase   m1    m2
2010 05 04    17 06.61   +04 47.0    1.147    2.019   139.0    19.1  15.3
2010 05 09    16 41.72   +08 58.3    1.154    2.059   144.1    16.7  15.4
2010 05 14    16 16.56   +12 47.6    1.184    2.099   146.0    15.6  15.6
2010 05 19    15 52.16   +16 03.8    1.236    2.140   144.2    16.1  15.8
2010 05 24    15 29.39   +18 42.2    1.309    2.182   139.8    17.4  16.0
2010 05 29    15 08.85   +20 43.4    1.398    2.225   134.1    19.1  16.2
2010 06 03    14 50.84   +22 12.0    1.500    2.269   127.9    20.7  16.4
2010 06 08    14 35.41   +23 13.5    1.613    2.313   121.6    22.0  16.7
2010 06 13    14 22.41   +23 53.8    1.734    2.357   115.5    22.9  16.9
2010 06 18    14 11.65   +24 18.0    1.862    2.402   109.7    23.5  17.2
2010 06 23    14 02.85   +24 30.1    1.993    2.448   104.1    23.7  17.4
2010 06 28    13 55.77   +24 33.4    2.127    2.493    98.8    23.8  17.6
2010 07 03    13 50.16   +24 30.3    2.262    2.540    93.7    23.5  17.8
2010 07 08    13 45.81   +24 22.6    2.397    2.586    88.9    23.1  18.0
2010 07 13    13 42.54   +24 11.5    2.532    2.633    84.3    22.6  18.2
2010 07 18    13 40.20   +23 58.2    2.666    2.680    79.8    21.9  18.4
2010 07 23    13 38.66   +23 43.4    2.797    2.727    75.5    21.1  18.6

Brian G. Marsden             (C) Copyright 2010 MPC           M.P.E.C. 2010-J32

Read MPEC 2010-J31 Read MPEC 2010-J33


MPEC number:

Enter an MPEC number in one of the following forms:

  • 1997-B01 (the full form)
  • J97B01 (the packed version of the full form)
  • B01 (the abbreviated form)

